FW2178 Weather Reports


Display with metric or nautical units.
time (UTC)temp
F
wind
direction
speed
MPH
gust
MPH
rain 1hr
in
rain 24hr
in
rain mn
in
humidity
%
barometer
mb
20260510230512 62 145 0.0 0.0 0.00 0.00 0.00 72 1018.7
20260510230257 62 136 0.0 0.0 0.00 0.00 0.00 70 1018.5
20260510225513 62 138 0.0 0.0 0.00 0.00 0.00 71 1018.7
20260510225253 62 138 0.0 0.0 0.00 0.00 0.00 72 1018.6
20260510224804 62 137 0.0 0.0 0.00 0.00 0.00 71 1018.7
20260510224011 62 153 0.0 0.0 0.00 0.00 0.00 66 1018.7
20260510223511 62 90 0.0 0.0 0.00 0.00 0.00 66 1018.7
20260510223011 62 139 0.0 0.0 0.00 0.00 0.00 71 1018.6
20260510222510 61 146 0.0 0.0 0.00 0.00 0.00 69 1018.5
20260510222011 62 176 0.0 0.0 0.00 0.00 0.00 69 1018.5
20260510221511 61 151 0.0 0.0 0.00 0.00 0.00 71 1018.4
20260510221011 61 151 0.0 0.0 0.00 0.00 0.00 71 1018.5
20260510220508 60 140 0.0 0.0 0.00 0.00 0.00 74 1018.3
20260510220010 60 123 0.0 0.0 0.00 0.00 0.00 73 1018.3
20260510215509 60 126 0.0 0.0 0.00 0.00 0.00 74 1018.2
20260510215010 60 125 0.0 0.0 0.00 0.00 0.00 74 1018.1
20260510214508 61 130 0.0 0.0 0.00 0.00 0.00 73 1018.4
20260510214010 61 144 0.0 0.0 0.00 0.00 0.00 73 1018.3
20260510213509 61 156 0.0 0.0 0.00 0.00 0.00 72 1018.3
20260510213009 61 149 0.0 0.0 0.00 0.00 0.00 72 1018.2
20260510212510 60 158 0.0 0.0 0.00 0.00 0.00 74 1018.1
20260510212010 60 180 0.0 0.0 0.00 0.00 0.00 73 1018.3
20260510211509 60 138 0.0 0.0 0.00 0.00 0.00 72 1018.4
20260510211010 60 140 0.0 0.0 0.00 0.00 0.00 73 1018.4
20260510210509 60 150 0.0 0.0 0.00 0.00 0.00 75 1018.3
20260510210009 59 133 0.0 0.0 0.00 0.00 0.00 75 1018.3
20260510205510 59 137 0.0 0.0 0.00 0.00 0.00 73 1018.3
20260510205010 59 139 0.0 0.0 0.00 0.00 0.00 73 1018.3
20260510204510 60 140 0.0 0.0 0.00 0.00 0.00 73 1018.1
20260510204010 59 145 0.0 0.0 0.00 0.00 0.00 75 1018.3
20260510203508 59 143 0.0 0.0 0.00 0.00 0.00 75 1017.8
20260510203009 59 149 0.0 0.0 0.00 0.00 0.00 74 1018.0
20260510202509 59 157 0.0 0.0 0.00 0.00 0.00 76 1018.2
20260510202009 59 160 0.0 0.0 0.00 0.00 0.00 76 1017.8
20260510201507 59 148 0.0 0.0 0.00 0.00 0.00 77 1017.7
20260510201009 59 159 0.0 0.0 0.00 0.00 0.00 75 1017.9
20260510200508 59 146 0.0 0.0 0.00 0.00 0.00 76 1017.8
20260510200004 59 145 0.0 0.0 0.00 0.00 0.00 74 1017.7
20260510195503 60 127 0.0 0.0 0.00 0.00 0.00 70 1017.6
20260510195002 60 142 0.0 0.0 0.00 0.00 0.00 76 1017.6
20260510194502 60 141 0.0 0.0 0.00 0.00 0.00 72 1017.5
20260510194002 60 3 0.0 0.0 0.00 0.00 0.00 72 1017.4
20260510193502 60 4 0.0 0.0 0.00 0.00 0.00 71 1017.8
20260510193002 59 345 0.0 0.0 0.00 0.00 0.00 71 1017.6
20260510192502 60 140 0.0 0.0 0.00 0.00 0.00 72 1017.4
20260510192003 60 126 0.0 0.0 0.00 0.00 0.00 72 1017.4
20260510191502 60 127 0.0 0.0 0.00 0.00 0.00 71 1017.8
20260510191003 60 146 0.0 0.0 0.00 0.00 0.00 72 1017.7
20260510190750 59 146 0.0 0.0 0.00 0.00 0.00 70 1017.4
20260510190002 59 125 0.0 0.0 0.00 0.00 0.00 71 1017.4
20260510185502 59 99 0.0 0.0 0.00 0.00 0.00 72 1017.3
20260510185008 58 126 0.0 0.0 0.00 0.00 0.00 77 1017.1
20260510184506 58 128 0.0 0.0 0.00 0.00 0.00 72 1017.4
20260510184005 58 117 0.0 0.0 0.00 0.00 0.00 73 1017.3
20260510183502 58 128 0.0 0.0 0.00 0.00 0.00 76 1017.2
20260510183002 58 146 0.0 0.0 0.00 0.00 0.00 75 1017.3
20260510182749 59 140 0.0 0.0 0.00 0.00 0.00 73 1017.2
20260510182002 58 159 0.0 0.0 0.00 0.00 0.00 73 1017.0
20260510181503 58 133 0.0 0.0 0.00 0.00 0.00 76 1017.1
20260510181002 57 133 0.0 0.0 0.00 0.00 0.00 78 1017.1
20260510180502 57 126 0.0 0.0 0.00 0.00 0.00 76 1017.0
20260510180003 57 158 0.0 0.0 0.00 0.00 0.00 75 1016.9
20260510175502 57 133 0.0 0.0 0.00 0.00 0.00 78 1017.1
20260510175245 57 133 0.0 0.0 0.00 0.00 0.00 78 1017.1
20260510174502 57 126 0.0 0.0 0.00 0.00 0.00 78 1017.0
20260510174245 57 127 0.0 0.0 0.00 0.00 0.00 74 1017.2
20260510173749 57 126 0.0 0.0 0.00 0.00 0.00 75 1017.0
20260510173002 58 149 0.0 0.0 0.00 0.00 0.00 76 1017.1
20260510172504 57 6 0.0 0.0 0.00 0.00 0.00 75 1017.3
20260510172249 57 111 0.0 0.0 0.00 0.00 0.00 77 1017.0
20260510171502 56 135 0.0 0.0 0.00 0.00 0.00 76 1017.0
20260510171244 56 128 0.0 0.0 0.00 0.00 0.00 78 1017.1
20260510170501 56 142 0.0 0.0 0.00 0.00 0.00 79 1017.2
20260510170003 56 143 0.0 0.0 0.00 0.00 0.00 79 1017.3
20260510165503 56 144 0.0 0.0 0.00 0.00 0.00 76 1017.1
20260510165248 56 156 0.0 0.0 0.00 0.00 0.00 76 1016.9
20260510164502 56 108 0.0 0.0 0.00 0.00 0.00 78 1016.7
20260510164002 56 70 0.0 0.0 0.00 0.00 0.00 77 1016.6
20260510163502 56 147 0.0 0.0 0.00 0.00 0.00 77 1016.4
20260510163249 56 131 0.0 0.0 0.00 0.00 0.00 80 1016.2
20260510162502 55 127 0.0 0.0 0.00 0.00 0.00 78 1016.3
20260510162002 56 108 0.0 0.0 0.00 0.00 0.00 81 1016.1
20260510161504 55 145 0.0 0.0 0.00 0.00 0.00 78 1016.3
20260510161003 55 135 0.0 0.0 0.00 0.00 0.00 80 1016.4
20260510160813 55 132 0.0 0.0 0.00 0.00 0.00 83 1016.3
20260510160002 55 118 0.0 0.0 0.00 0.00 0.00 83 1016.2
20260510155806 54 140 0.0 0.0 0.00 0.00 0.00 86 1016.2
20260510155013 54 117 0.0 0.0 0.00 0.00 0.00 87 1016.3
20260510154503 54 117 0.0 0.0 0.00 0.00 0.00 87 1016.2
20260510154004 54 117 0.0 0.0 0.00 0.00 0.00 88 1015.8
20260510153502 54 117 0.0 0.0 0.00 0.00 0.00 88 1016.1
20260510153003 53 117 0.0 0.0 0.00 0.00 0.00 90 1016.1
20260510152809 53 117 0.0 0.0 0.00 0.00 0.00 90 1015.7
20260510152003 53 117 0.0 0.0 0.00 0.00 0.00 89 1016.3
20260510151502 53 119 0.0 0.0 0.00 0.00 0.00 90 1016.1
20260510151249 53 119 0.0 0.0 0.00 0.00 0.00 91 1016.4
20260510150503 52 119 0.0 0.0 0.00 0.00 0.00 92 1016.3
20260510150034 52 119 0.0 0.0 0.00 0.00 0.00 93 1016.5
20260510145002 51 119 0.0 0.0 0.00 0.00 0.00 95 1016.0
20260510144502 51 119 0.0 0.0 0.00 0.00 0.00 96 1016.4
20260510144003 51 118 0.0 0.0 0.00 0.00 0.00 95 1016.0
20260510143503 51 117 0.0 0.0 0.00 0.00 0.00 95 1015.9
20260510143002 51 123 0.0 0.0 0.00 0.00 0.00 96 1016.0
20260510142502 50 148 0.0 0.0 0.00 0.00 0.00 96 1016.4
20260510142003 50 148 0.0 0.0 0.00 0.00 0.00 96 1016.9
20260510141503 50 147 0.0 0.0 0.00 0.00 0.00 96 1016.1
20260510141002 49 159 0.0 0.0 0.00 0.00 0.00 96 1016.0
20260510140503 49 112 0.0 0.0 0.00 0.00 0.00 97 1015.6
20260510140003 49 128 0.0 0.0 0.00 0.00 0.00 97 1015.8
20260510135504 49 128 0.0 0.0 0.00 0.00 0.00 97 1015.9
20260510135248 49 128 0.0 0.0 0.00 0.00 0.00 97 1015.9
20260510134753 49 128 0.0 0.0 0.00 0.00 0.00 97 1015.7
20260510134253 49 128 0.0 0.0 0.00 0.00 0.00 98 1015.8
20260510133507 48 128 0.0 0.0 0.00 0.00 0.00 97 1016.0
20260510133006 48 128 0.0 0.0 0.00 0.00 0.00 97 1016.0
20260510132503 48 129 0.0 0.0 0.00 0.00 0.00 98 1016.1
20260510132004 49 129 0.0 0.0 0.00 0.00 0.00 98 1016.2
20260510131502 48 129 0.0 0.0 0.00 0.00 0.00 98 1016.1
20260510131002 48 129 0.0 0.0 0.00 0.00 0.00 98 1016.3
20260510130503 48 129 0.0 0.0 0.00 0.00 0.00 98 1016.0
20260510130248 48 129 0.0 0.0 0.00 0.00 0.00 98 1016.2
20260510125746 48 129 0.0 0.0 0.00 0.00 0.00 98 1016.2
20260510125002 48 129 0.0 0.0 0.00 0.00 0.00 98 1015.4
20260510124501 48 129 0.0 0.0 0.00 0.00 0.00 98 1015.9
20260510124003 48 129 0.0 0.0 0.00 0.00 0.00 98 1016.1
20260510123502 48 129 0.0 0.0 0.00 0.00 0.00 98 1015.9
20260510123002 48 129 0.0 0.0 0.00 0.00 0.00 98 1015.9
20260510122503 48 129 0.0 0.0 0.00 0.00 0.00 98 1015.9
20260510122306 48 129 0.0 0.0 0.00 0.00 0.00 98 1015.8
20260510121502 48 129 0.0 0.0 0.00 0.00 0.00 97 1016.0
20260510121002 48 129 0.0 0.0 0.00 0.00 0.00 97 1016.0
20260510120747 49 129 0.0 0.0 0.00 0.00 0.00 98 1015.9
20260510120004 48 129 0.0 0.0 0.00 0.00 0.00 98 1015.7
20260510115502 48 129 0.0 0.0 0.00 0.00 0.00 97 1015.7
20260510115002 48 129 0.0 0.0 0.00 0.00 0.00 97 1015.6
20260510114502 49 129 0.0 0.0 0.00 0.00 0.00 97 1015.6
20260510114002 49 129 0.0 0.0 0.00 0.00 0.00 97 1015.8
20260510113502 49 129 0.0 0.0 0.00 0.00 0.00 98 1015.7
20260510113002 49 129 0.0 0.0 0.00 0.00 0.00 98 1015.7
20260510112502 49 129 0.0 0.0 0.00 0.00 0.00 98 1015.8
20260510112001 49 129 0.0 0.0 0.00 0.00 0.00 97 1015.8
20260510111503 49 129 0.0 0.0 0.00 0.00 0.00 97 1015.6
20260510111242 49 129 0.0 0.0 0.00 0.00 0.00 97 1015.7
20260510110502 49 129 0.0 0.0 0.00 0.00 0.00 97 1015.3
20260510110002 49 129 0.0 0.0 0.00 0.00 0.00 97 1015.4
20260510105502 49 129 0.0 0.0 0.00 0.00 0.00 97 1015.6
20260510105002 49 129 0.0 0.0 0.00 0.00 0.00 97 1015.6
20260510104503 49 129 0.0 0.0 0.00 0.00 0.00 97 1015.3
20260510104252 49 129 0.0 0.0 0.00 0.00 0.00 97 1015.0
20260510103502 49 129 0.0 0.0 0.00 0.00 0.00 97 1015.3
20260510103004 49 129 0.0 0.0 0.00 0.00 0.00 97 1015.3
20260510102502 49 129 0.0 0.0 0.00 0.00 0.00 96 1015.3
20260510102002 49 129 0.0 0.0 0.00 0.00 0.00 96 1015.6
20260510101502 49 129 0.0 0.0 0.00 0.00 0.00 96 1015.3
20260510101002 49 129 0.0 0.0 0.00 0.00 0.00 96 1015.3
20260510100502 50 129 0.0 0.0 0.00 0.00 0.00 96 1015.0
20260510100003 50 129 0.0 0.0 0.00 0.00 0.00 96 1015.0
20260510095502 50 129 0.0 0.0 0.00 0.00 0.00 96 1015.1
20260510095001 50 129 0.0 0.0 0.00 0.00 0.00 95 1015.1
20260510094550 50 129 0.0 0.0 0.00 0.00 0.00 95 1015.1
20260510094531 50 129 0.0 0.0 0.00 0.00 0.00 95 1015.4
20260510093502 50 129 0.0 0.0 0.00 0.00 0.00 95 1014.8
20260510093002 50 129 0.0 0.0 0.00 0.00 0.00 94 1015.0
20260510092502 50 129 0.0 0.0 0.00 0.00 0.00 94 1014.8
20260510092002 50 129 0.0 0.0 0.00 0.00 0.00 94 1015.0
20260510091504 50 129 0.0 0.0 0.00 0.00 0.00 94 1015.0
20260510091002 50 129 0.0 0.0 0.00 0.00 0.00 93 1014.7
20260510090502 51 129 0.0 0.0 0.00 0.00 0.00 93 1015.0
20260510090312 51 129 0.0 0.0 0.00 0.00 0.00 93 1014.7
20260510085502 51 129 0.0 0.0 0.00 0.00 0.00 93 1014.9
20260510085004 51 129 0.0 0.0 0.00 0.00 0.00 93 1014.7
20260510084503 51 129 0.0 0.0 0.00 0.00 0.00 93 1014.5
20260510084002 51 129 0.0 0.0 0.00 0.00 0.00 92 1014.8
20260510083502 51 129 0.0 0.0 0.00 0.00 0.00 92 1014.6
20260510083002 51 129 0.0 0.0 0.00 0.00 0.00 93 1014.6
20260510082502 51 129 0.0 0.0 0.00 0.00 0.00 93 1014.5
20260510082002 51 129 0.0 0.0 0.00 0.00 0.00 93 1014.7
20260510081503 52 129 0.0 0.0 0.00 0.00 0.00 93 1014.8
20260510081002 52 129 0.0 0.0 0.00 0.00 0.00 93 1014.8
20260510080502 52 129 0.0 0.0 0.00 0.00 0.00 93 1014.7
20260510080002 52 129 0.0 0.0 0.00 0.00 0.00 93 1014.9
20260510075502 52 129 0.0 0.0 0.00 0.00 0.00 93 1014.8
20260510075008 52 129 0.0 0.0 0.00 0.00 0.00 92 1014.7
20260510074504 52 129 0.0 0.0 0.00 0.00 0.00 92 1014.7
20260510074002 52 129 0.0 0.0 0.00 0.00 0.00 92 1014.7
20260510073503 52 129 0.0 0.0 0.00 0.00 0.00 92 1014.9
20260510073002 53 129 0.0 0.0 0.00 0.00 0.00 92 1014.6
20260510072502 53 129 0.0 0.0 0.00 0.00 0.00 92 1014.7
20260510072103 53 129 0.0 0.0 0.00 0.00 0.00 92 1014.7
20260510072043 53 129 0.0 0.0 0.00 0.00 0.00 92 1014.8
20260510071106 53 129 0.0 0.0 0.00 0.00 0.00 92 1014.5
20260510071042 53 129 0.0 0.0 0.00 0.00 0.00 92 1014.4
20260510070249 53 129 0.0 0.0 0.00 0.00 0.00 92 1014.5
20260510065503 53 129 0.0 0.0 0.00 0.00 0.00 92 1014.8
20260510065245 53 129 0.0 0.0 0.00 0.00 0.00 91 1014.4
20260510064502 53 129 0.0 0.0 0.00 0.00 0.00 91 1014.4
20260510064002 53 129 0.0 0.0 0.00 0.00 0.00 91 1014.5
20260510063502 53 129 0.0 0.0 0.00 0.00 0.00 91 1014.8
20260510063001 53 129 0.0 0.0 0.00 0.00 0.00 91 1014.7
20260510062503 53 129 0.0 0.0 0.00 0.00 0.00 90 1014.6
20260510062001 53 129 0.0 0.0 0.00 0.00 0.00 91 1014.7
20260510061818 54 129 0.0 0.0 0.00 0.00 0.00 90 1014.7
20260510061002 54 129 0.0 0.0 0.00 0.00 0.00 90 1014.7
20260510060502 54 129 0.0 0.0 0.00 0.00 0.00 90 1014.6
20260510060003 54 129 0.0 0.0 0.00 0.00 0.00 90 1014.6
20260510055503 54 129 0.0 0.0 0.00 0.00 0.00 90 1014.5
20260510055249 54 129 0.0 0.0 0.00 0.00 0.00 89 1014.5
20260510054502 54 129 0.0 0.0 0.00 0.00 0.00 88 1014.4
20260510054002 54 129 0.0 0.0 0.00 0.00 0.00 88 1014.6
20260510053503 55 129 0.0 0.0 0.00 0.00 0.00 87 1014.4
20260510053002 55 129 0.0 0.0 0.00 0.00 0.00 87 1014.6
20260510052502 55 129 0.0 0.0 0.00 0.00 0.00 86 1014.4
20260510052002 55 129 0.0 0.0 0.00 0.00 0.00 86 1014.3
20260510051502 55 129 0.0 0.0 0.00 0.00 0.00 85 1014.5
20260510051006 55 129 0.0 0.0 0.00 0.00 0.00 85 1014.6
20260510050449 55 129 0.0 0.0 0.00 0.00 0.00 86 1014.6
20260510045950 55 129 0.0 0.0 0.00 0.00 0.00 86 1014.5
20260510045451 55 129 0.0 0.0 0.00 0.00 0.00 86 1014.4
20260510044950 55 129 0.0 0.0 0.00 0.00 0.00 85 1014.5
20260510044450 55 129 0.0 0.0 0.00 0.00 0.00 86 1014.6
20260510043950 55 129 0.0 0.0 0.00 0.00 0.00 85 1014.7
20260510043451 55 128 0.0 0.0 0.00 0.00 0.00 85 1014.6
20260510042950 56 128 0.0 0.0 0.00 0.00 0.00 84 1014.4
20260510042449 56 128 0.0 0.0 0.00 0.00 0.00 84 1014.4
20260510041949 56 128 0.0 0.0 0.00 0.00 0.00 83 1014.5
20260510041449 56 128 0.0 0.0 0.00 0.00 0.00 83 1014.2
20260510040950 56 128 0.0 0.0 0.00 0.00 0.00 82 1014.4
20260510040449 57 128 0.0 0.0 0.00 0.00 0.00 82 1014.6
20260510040242 57 128 0.0 0.0 0.00 0.00 0.00 82 1014.4
20260510035449 57 128 0.0 0.0 0.00 0.00 0.00 82 1014.4
20260510034951 57 128 0.0 0.0 0.00 0.00 0.00 82 1014.2
20260510034449 57 128 0.0 0.0 0.00 0.00 0.00 82 1014.4
20260510034239 57 128 0.0 0.0 0.00 0.00 0.00 82 1014.1
20260510033449 57 128 0.0 0.0 0.00 0.00 0.00 83 1014.3
20260510032950 57 128 0.0 0.0 0.00 0.00 0.00 83 1014.5
20260510032449 58 128 0.0 0.0 0.00 0.00 0.00 82 1014.3
20260510032239 58 128 0.0 0.0 0.00 0.00 0.00 82 1014.5
20260510031449 58 128 0.0 0.0 0.00 0.00 0.00 80 1014.6
20260510030948 58 128 0.0 0.0 0.00 0.00 0.00 82 1014.5
20260510030449 58 128 0.0 0.0 0.00 0.00 0.00 80 1014.7
20260510025949 59 128 0.0 0.0 0.00 0.00 0.00 81 1014.7
20260510025448 59 128 0.0 0.0 0.00 0.00 0.00 80 1014.6
20260510025120 60 128 0.0 0.0 0.00 0.00 0.00 77 1014.8
20260510025115 60 128 0.0 0.0 0.00 0.00 0.00 75 1014.7
20260510025049 59 128 0.0 0.0 0.00 0.00 0.00 78 1014.6
20260510023448 60 128 0.0 0.0 0.00 0.00 0.00 77 1014.8
20260510022948 60 128 0.0 0.0 0.00 0.00 0.00 76 1014.7
20260510022742 61 128 0.0 0.0 0.00 0.00 0.00 75 1014.9
20260510021948 61 128 0.0 0.0 0.00 0.00 0.00 79 1014.9
20260510021448 62 128 0.0 0.0 0.00 0.00 0.00 74 1014.7
20260510020947 62 128 0.0 0.0 0.00 0.00 0.00 75 1015.0
20260510020449 62 128 0.0 0.0 0.00 0.00 0.00 77 1014.9
20260510015949 62 128 0.0 0.0 0.00 0.00 0.00 73 1015.2
20260510015448 62 128 0.0 0.0 0.00 0.00 0.00 74 1015.3
20260510014948 63 128 0.0 0.0 0.00 0.00 0.00 75 1015.2
20260510014449 63 128 0.0 0.0 0.00 0.00 0.00 76 1015.1
20260510014035 64 128 0.0 1.0 0.00 0.00 0.00 73 1015.3
20260510014014 63 128 0.0 0.0 0.00 0.00 0.00 72 1015.4
20260510012948 64 128 0.0 1.0 0.00 0.00 0.00 71 1015.6
20260510012447 64 128 0.0 0.0 0.00 0.00 0.00 71 1015.6
20260510011948 65 128 0.0 0.0 0.00 0.00 0.00 68 1015.6
20260510011449 64 128 0.0 0.0 0.00 0.00 0.00 68 1015.7
20260510010953 64 128 0.0 0.0 0.00 0.00 0.00 68 1015.9
20260510010450 65 128 0.0 0.0 0.00 0.00 0.00 72 1015.6
20260510005948 64 130 0.0 0.0 0.00 0.00 0.00 69 1015.8
20260510005449 65 130 0.0 0.0 0.00 0.00 0.00 73 1015.9
20260510004948 65 130 0.0 0.0 0.00 0.00 0.00 74 1015.7
20260510004447 65 129 0.0 0.0 0.00 0.00 0.00 72 1015.8
20260510003948 65 117 0.0 0.0 0.00 0.00 0.00 68 1015.9
20260510003449 65 143 0.0 0.0 0.00 0.00 0.00 67 1016.0
20260510002950 65 155 0.0 0.0 0.00 0.00 0.00 67 1015.8
20260510002450 66 138 0.0 0.0 0.00 0.00 0.00 67 1015.9
20260510001949 66 141 0.0 0.0 0.00 0.00 0.00 62 1015.9
20260510001448 66 139 0.0 0.0 0.00 0.00 0.00 62 1016.0
20260510000948 66 96 0.0 0.0 0.00 0.00 0.00 68 1016.2
20260510000737 66 115 0.0 0.0 0.00 0.00 0.00 68 1016.4
20260510000236 66 115 0.0 0.0 0.00 0.00 0.00 66 1016.3
20260509235448 66 113 0.0 0.0 0.00 0.00 0.00 70 1016.4
20260509234948 66 108 0.0 0.0 0.00 0.00 0.00 61 1016.5
20260509234448 66 99 0.0 0.0 0.00 0.00 0.00 60 1016.4
20260509233948 66 122 0.0 0.0 0.00 0.00 0.00 59 1016.3
20260509233449 66 140 0.0 0.0 0.00 0.00 0.00 60 1016.7
20260509232949 66 145 0.0 1.0 0.00 0.00 0.00 61 1016.8
20260509232448 66 134 0.0 1.0 0.00 0.00 0.00 64 1016.7
20260509232030 66 100 0.0 0.0 0.00 0.00 0.00 57 1016.5
20260509232013 66 122 0.0 0.0 0.00 0.00 0.00 65 1016.7